Hourly Data Report for October 18, 2015

All times are specified in Local Standard Time (LST). Add 1 hour to adjust for Daylight Saving Time where and when it is observed.

BAKER LAKE A
NUNAVUT

64°17'56.000" N
96°04'40.000" W
18.60 m
2300503
71926
YBK

Download Data

Hourly Data (October 2015)
Hourly Data Report for October 18, 2015
Temp Definition
°C
Dew Point Temp Definition
°C
Rel Hum Definition
%
Wind Dir Definition
10's deg

Wind Spd Definition
km/h
Visibility Definition
km
Stn Press Definition
kPa
Hmdx Definition


Wind Chill Definition


Weather Definition


TIME
00:00 Legend Double Dagger -8.6 -9.4 94 36 2 24.1 101.05   -10 Mostly Cloudy
01:00 Legend Double Dagger -7.5 -8.4 93 13 15 24.1 100.96   -14 LegendNANA
02:00 Legend Double Dagger -6.7 -7.7 93 13 16 24.1 100.85   -13 LegendNANA
03:00 Legend Double Dagger -6.4 -7.5 92 13 22 24.1 100.73   -14 Mostly Cloudy
04:00 Legend Double Dagger -6.4 -7.4 93 13 28 24.1 100.62   -15 LegendNANA
05:00 Legend Double Dagger -6.4 -7.4 93 12 23 24.1 100.51   -14 LegendNANA
06:00 Legend Double Dagger -5.7 -6.7 93 13 26 24.1 100.43   -13 Cloudy
07:00 Legend Double Dagger -4.9 -6.2 91 11 30 32.2 100.31   -13 LegendNANA
08:00 Legend Double Dagger -4.6 -6.3 88 11 35 32.2 100.24   -13 LegendNANA
09:00 Legend Double Dagger -5.0 -6.1 92 7 31 32.2 100.15   -13 Cloudy
10:00 Legend Double Dagger -5.5 -6.5 93 6 29 8.1 100.06   -14 Snow
11:00 Legend Double Dagger -5.4 -6.6 91 7 30 8.1 100.01   -14 Snow,Blowing Snow
12:00 Legend Double Dagger -5.1 -7.2 85 6 28 24.1 99.96   -13 Snow
13:00 Legend Double Dagger -5.2 -8.1 80 5 27 24.1 99.94   -13 Snow
14:00 Legend Double Dagger -5.3 -7.9 82 3 26 9.7 99.93   -13 Snow,Blowing Snow
15:00 Legend Double Dagger -5.7 -8.6 80 4 24 24.1 99.92   -13 Snow
16:00 Legend Double Dagger -6.1 -9.5 77 3 23 32.2 99.95   -13 Snow
17:00 Legend Double Dagger -7.3 -10.3 79 1 24 32.2 100.00   -15 Snow
18:00 Legend Double Dagger -7.7 -10.7 79 36 31 24.1 100.05   -17 Mainly Clear
19:00 Legend Double Dagger -7.4 -9.8 83 35 34 24.1 100.06   -17 LegendNANA
20:00 Legend Double Dagger -8.9 -10.8 86 35 28 24.1 100.06   -18 LegendNANA
21:00 Legend Double Dagger -8.8 -10.9 85 34 37 24.1 100.05   -19 Mainly Clear
22:00 Legend Double Dagger -7.7 -10.0 84 34 47 24.1 100.05   -18 LegendNANA
23:00 Legend Double Dagger -7.9 -10.3 83 35 48 16.1 100.07   -19 Snow,Blowing Snow

Notes on Data Quality.

Legend

  • E = Estimated
  • M = Missing
  • NA = Not Available
  • ‡ = Partner data that is not subject to review by the National Climate Archives
Date modified: